Regional Weather Roundup
Issued by NWS Pendleton, OR

Home | Current Version | Previous Version | Text Only | Print | Product List | Glossary On
Versions: 1 2 3 4 5 6 7 8 9 10 11 12 13 14 15 16 17 18 19 20 21 22 23 24 25 26 27 28 29 30 31 32 33 34 35 36 37 38 39 40 41 42 43 44 45 46 47 48 49 50
971
ASUS46 KPDT 221410
RWRPDT
PENDLETON REGIONAL WEATHER ROUNDUP
NATIONAL WEATHER SERVICE PENDLETON OREGON
700 AM PDT FRI MAY 22 2015

NOTE: FAIR INDICATES FEW OR NO CLOUDS BELOW 12,000 FEET WITH NO
SIGNIFICANT WEATHER AND/OR OBSTRUCTIONS TO VISIBILITY.

# INDICATES UNOFFICIAL STATION AND DATA

WAZ520-221510-
EAST SLOPES OF WASHINGTON CASCADES

CITY            SKY/WX      TMP DP  RH  WIND    PRES   REMARKS
#BULLFROG 2SW   N/A         56  51  83  S2      27.52R
#BUMPING DAM    N/A         46  N/A N/A S1      N/A
#CLE ELUM HS    N/A         54  51  90  CALM    29.85R
#CLE ELUM LAKE  N/A         54  49  83  CALM    29.79R
#CLIFFDEL 2NW   N/A         50  48  93  N1      N/A
#EASTON DOT     N/A         56  47  72  CALM    N/A
#GLENWOOD       N/A         53  52  96  CALM    29.83S
#MANASTASH CYN  N/A         55  47  74  CALM    29.87R
#NELSON         N/A         57  53  86  CALM    29.83R
#NELSON 3SW     N/A         54  51  90  CALM    29.99R
#NILE           N/A         52  51  96  CALM    29.11S
#PEOH POINT     N/A         51  49  93  W7      N/A
#RONALD 2NW     N/A         56   0  10  CALM    29.80R
#TEANAWAY 4NE   N/A         51  51  100 CALM    N/A
#TROUT LAKE 1NE N/A         56  53  90  CALM    29.83S
$$

WAZ521-221510-
SIMCOE HIGHLANDS

CITY            SKY/WX      TMP DP  RH  WIND    PRES   REMARKS
#SATUS PASS DOT N/A         53  46  77  CALM    N/A
#CENTERVILLE 4W N/A         57  52  83  NW13    29.62R
#CENTERVILLE 1SWN/A         57  51  80  W7      29.80R
#GOLDENDALE     N/A         57  55  93  W5      N/A
#GOLDENDALE 1NE N/A         57  52  83  S3      N/A
#GOLDENDALE 5WNWN/A         57  53  86  W9      29.80
#GOODNOE HILLS  N/A         62  56  81  W9      N/A
#LYLE 6NE       N/A         55  50  83  SW7     29.81R
$$

WAZ026-221510-
KITTITAS VALLEY

CITY            SKY/WX      TMP DP  RH  WIND    PRES   REMARKS
ELLENSBURG AP   MOCLDY      65  53  65  N13     29.85S
YTC-OPS AREA    N/A         58  48  69  W22G30  29.84S
#ELLENSBURG CWU N/A         60  52  75  NW6     29.73S
#ELLENSBURG 3NE N/A         60  54  81  NW7     29.85S
#ELLENSBURG 1E  N/A         58  50  75  CALM    N/A
#KITTITAS 3S    N/A         53  51  93  CALM    29.78S
#THORP 6N       N/A         56  51  83  N12     29.80S
$$

WAZ027-221510-
YAKIMA VALLEY

CITY            SKY/WX      TMP DP  RH  WIND    PRES   REMARKS
SUNNYSIDE AP    N/A         57  54  90  CALM    29.82S
YAKIMA AIRPORT  LGT RAIN    66  53  63  VRB3    29.84R
#DONALD 2NE     N/A         63  48  58  NE1     28.68R
#GRANDVIEW      N/A         60  53  78  CALM    29.80S
#MABTON         N/A         61  54  78  CALM    29.81S
#MOXEE 2E       N/A         61  45  56  W1      29.77
#NACHES 2SW     N/A         61  52  72  W10     29.85S
#TERRACE HTS    N/A         62  54  75  CALM    29.74R
#TOPPENISH      N/A         61  53  75  CALM    29.71R
#WAPATO 4NE     N/A         63  48  58  NE1     28.68R
#WEST VALLEY    N/A         58  52  80  CALM    29.77S
#W YAKIMA       N/A         62  53  72  N2      29.78S
#WHITE SWAN 5E  N/A         58  54  87  CALM    29.79S
#WILEY CITY 3W  N/A         57  49  75  CALM    29.81R
$$

WAZ028-221510-
LOWER COLUMBIA BASIN...WASHINGTON

CITY            SKY/WX      TMP DP  RH  WIND    PRES   REMARKS
HANFORD         MOCLDY      64  54  70  SW5     29.82R
PASCO           LGT RAIN    66  56  70  S6      29.82R
RICHLAND AWOS   PTCLDY      66  57  73  SW3     29.82R
#BASIN CITY 5SW N/A         59  57  93  CALM    29.81R
#BENTON CITY    N/A         63  56  78  NW1     29.70S
#CONNELL 5N     N/A         57  53  86  CALM    29.78S
#CONNELL 5NW    N/A         59  54  83  E1      29.75R
#ELTOPIA        N/A         62  58  87  CALM    29.76R
#ELTOPIA 6NW    N/A         59  56  90  S1      28.79S
#KAHLOTUS       N/A         59  52  78  SE2     29.79R
#KENNEWICK      N/A         56  51  83  S2      27.52R
#KENNEWICK 3S   N/A         62  55  78  SW3     29.78R
#PASCO-BROADMOORN/A         65  57  75  CALM    29.70R
#PATERSON       N/A         61  56  84  CALM    29.80R
#PROSSER DOT    N/A         60  55  84  S1      N/A
#PROSSER        N/A         62  52  70  CALM    29.78S
#SAGEMOOR 2W    N/A         61  57  87  CALM    29.64R
#TOUCHET 2S     N/A         65  56  73  S7      29.78R
#WEST PASCO     N/A         64  56  75  CALM    29.77R
$$

WAZ029-221510-
FOOTHILLS OF THE BLUES...WASHINGTON

CITY            SKY/WX      TMP DP  RH  WIND    PRES   REMARKS
WALLA WALLA AP  CLOUDY      65  54  68  S5      29.84R
#DAYTON SCHOOL  N/A         57  49  75  N1      29.87R
#DELANEY DOT    N/A         57  52  83  CALM    N/A
#LOWDEN 2SE     N/A         60  56  87  E1      29.79R
#PLEASANT VIEW 1N/A         63  54  72  S7      29.81R
#PRESCOTT       N/A         58  56  93  CALM    29.80R
#SUDBURY        N/A         62  N/A N/A CALM    N/A
#WHITMAN COLLEGEN/A         63  55  75  CALM    29.85R
#WAITSBURG 8N   N/A         64  35  34  SE5     29.68S
#WHITMAN MISSIONN/A         60  56  87  CALM    29.81R
$$

WAZ030-221510-
BLUE MOUNTAINS...WASHINGTON

CITY            SKY/WX      TMP DP  RH  WIND    PRES   REMARKS
#DIXIE 5SE      N/A         59  48  67  CALM    29.82R
$$

ORZ009-041-WAZ024-221510-
COLUMBIA RIVER GORGE

CITY            SKY/WX      TMP DP  RH  WIND    PRES   REMARKS
HOOD RIVER AP   PTCLDY      59  50  72  NW10    29.90R
THE DALLES AP   CLOUDY      62  51  67  MISG    29.86R
#ARLINGTON AIRPON/A         63  55  75  W9      29.81S
#CELILO DOT     N/A         65  51  60  SW7     N/A
#MARYHILL       N/A         62  52  70  CALM    N/A
#MOSIER 1S      N/A         58  46  64  W6      29.88S
#MURDOCK        N/A         63  54  72  NW22G31 29.86R

$$

ORZ510-221510-
NORTH CENTRAL OREGON

CITY            SKY/WX      TMP DP  RH  WIND    PRES   REMARKS
#CHENOWITH 1W   N/A         55  49  80  W35     N/A
#COW CYN RST AREN/A         52  52  100 SW3     N/A
#DUFUR 9E       N/A         55  52  90  CALM    29.86R
#GRASS VALLEY 1SN/A         55  54  96  SW7     29.85F
#KENT DOT       N/A         54  49  83  SW8     N/A
#MAUPIN SCHOOL  N/A         58  55  90  CALM    29.89R
#MORO SCHOOL    N/A         57  56  96  CALM    29.90R
#SHANIKO 5WSW   N/A         51  47  86  S8      N/A
#SHANIKO 4NW    N/A         51  50  96  SW1     29.92S
#TYGH VALLEY 2NEN/A         56  54  93  CALM    29.85R
#WAPANITIA AIRPON/A         55  53  93  CALM    29.85R
#WASCO DOT      N/A         59  51  75  W3      N/A
#WASCO 5NE      N/A         58  52  80  SW13    29.81R
$$

ORZ511-221510-
CENTRAL OREGON

CITY            SKY/WX      TMP DP  RH  WIND    PRES   REMARKS
BEND AIRPORT    CLOUDY      54  48  80  CALM    29.94S
MADRAS AIRPORT  CLOUDY      54  54  100 S3      29.94R
PRINEVILLE AP   CLOUDY      52  52  100 CALM    29.93S FOG
REDMOND AIRPORT LGT RAIN    52  51  96  CALM    29.93  FOG
#BEND 1SW       N/A         51  49  93  CALM    N/A
#BEND-AWBREY    N/A         52  50  93  CALM    29.87R
#BEND-KIM LN    N/A         51  49  93  SW3     29.91S
#CROOKED RVR RANN/A         53  52  96  CALM    29.86S
#CULVER         N/A         53  51  93  CALM    29.89R
#LAKE BILLY CHINN/A         54  52  93  CALM    30.01R
#POWELL BUTTE   N/A         52  49  89  CALM    29.57S
#PRINEVILLE 3N  N/A         53  52  96  E1      29.83R
#WARM SPRINGS   N/A         56  55  96  CALM    29.89S

$$


ORZ509-221510-
EAST SLOPES OF OREGON CASCADES

CITY            SKY/WX      TMP DP  RH  WIND    PRES   REMARKS
#BLUE BOX PASS  N/A         47  -7  10  NW2     N/A
#CAMP SHERMAN   N/A         51  49  93  CALM    29.86R
#LA PINE 4NW    N/A         47  44  89  CALM    29.90S
#SISTERS AIRPOR N/A         52  52  100 CALM    30.17S
#SISTERS ODOT   N/A         51  N/A N/A CALM    N/A
#SISTERS 3N     N/A         52  51  96  CALM    29.95S
#SUNRIVER       N/A         49  48  96  CALM    29.76R
#TUMALO 3W      N/A         53  47  80  CALM    29.75S
#WANOGA BUTTE D N/A         45  42  89  CALM    N/A

$$

ORZ044-221510-
LOWER COLUMBIA BASIN...OREGON

CITY            SKY/WX      TMP DP  RH  WIND    PRES   REMARKS
HERMISTON       MOCLDY      65  55  70  SW3     29.83R
#BOARDMAN SCHOOLN/A         62  56  81  CALM    29.84R
#ECHO 8SW       N/A         64  54  70  SW7     29.84R
#IONE SCHOOL    N/A         64  47  54  S2      29.83R
#IRRIGON 4NW    N/A         61  57  87  E2      N/A
#UMATILLA SCHOOLN/A         59  59  100 CALM    29.89S
#UMATILLA       N/A         61  55  81  CALM    29.75R
$$

ORZ507-221510-
NORTHERN FOOTHILLS OF THE BLUES

CITY            SKY/WX      TMP DP  RH  WIND    PRES   REMARKS
PENDLETON AIRPT CLOUDY      59  52  78  S5      29.85R
#ADAMS 3WNW     N/A         57  55  93  CALM    29.81R
#ATHENA         N/A         59  53  80  CALM    29.82S
#CAYUSE         N/A         60  53  78  E5      29.80S
#HELIX SCHOOL   N/A         56  52  86  CALM    29.79S
#HELIX 3N       N/A         58  53  83  S3      29.84R
#HOLDMAN 5SE    N/A         60  55  84  CALM    29.86R
#HOLDMAN 6E     N/A         58  53  83  N3      29.62R
#M-F FERNDALE   N/A         63  53  70  CALM    29.83R
#M-F GROVE ELEM N/A         62  52  70  CALM    29.83R
#M-FREEWATER 5SEN/A         60  53  78  CALM    29.85R
#PENDLETON DNTN N/A         58  53  83  CALM    29.84S
#PDT AQUATIC CTRN/A         59  51  75  CALM    29.86S
#PENDLETON 5NE  N/A         59  56  90  CALM    29.83S
#PDT SUNRIDGE   N/A         57  53  86  CALM    29.86R
#PENDLETON 7NW  N/A         57  53  86  CALM    29.79R
#PILOT ROCK     N/A         59  50  72  CALM    29.88S
#TUTUILLA       N/A         57  53  86  CALM    29.83S
#UMAPINE 2E     N/A         63  57  81  S1      29.80R
#WESTON SCHOOL  N/A         61  51  70  W2      29.83S

$$

ORZ508-221510-
SOUTHERN FOOTHILLS OF THE BLUES

CITY            SKY/WX      TMP DP  RH  WIND    PRES   REMARKS
#AJAX           N/A         65  49  56  S152    29.76S
#CONDON 5W      N/A         52  48  86  SW9     29.88S
#FOSSIL SCHOOL  N/A         53  51  93  CALM    29.89S
#HEPPNER EOC    N/A         57  52  83  CALM    29.75S
#HEPPNER 4NE    N/A         56  51  83  S3      29.81R
#LEXINGTON 2SE  N/A         61  54  78  SE1     29.84R
#OLEX 4N        N/A         61  54  78  SW8     29.84S
#RUGGS 5NE      N/A         55  51  86  CALM    30.04S
#RUGGS 2SW      N/A         55  50  83  S5      29.84R

$$

ORZ502-503-221510-
BLUE MOUNTAINS

CITY            SKY/WX      TMP DP  RH  WIND    PRES   REMARKS
MEACHAM         CLOUDY      49  46  89  CALM    29.92R
#HEPPNER 15SE   N/A         50  48  93  CALM    29.82R
#LADD CYN SMT   N/A         46  43  89  CALM    N/A
#LONG CREEK HS  N/A         50  50  100 CALM    29.88S
#N POWDER DOT   N/A         47  46  96  CALM    N/A
#PIKES PEAK     N/A         56  48  74  S5      27.99S
#TOLLGATE       N/A         49  47  93  CALM    29.88S
#TROY SCHOOL    N/A         54  52  93  CALM    29.70S
#UKIAH          N/A         48  47  96  CALM    29.90R
#WESTON 4E      N/A         54  49  83  SE3     29.74R
$$

ORZ505-221510-
JOHN DAY BASIN

CITY            SKY/WX      TMP DP  RH  WIND    PRES   REMARKS
JOHN DAY        CLOUDY      51  48  89  CALM    29.94S
#JOHN DAY KJDY  N/A         52  47  83  CALM    29.94F
#DAYVILLE SCHOOLN/A         53  49  86  CALM    29.90R
#MONUMENT HS    N/A         53  50  89  CALM    29.91S
#MT. VERNON 5SE N/A         49  47  93  CALM    29.89S
$$

ORZ506-221510-
OCHOCO AND JOHN DAY HIGHLANDS

CITY            SKY/WX      TMP DP  RH  WIND    PRES   REMARKS
#BUCK CREEK DOT N/A         50  50  100 W2      N/A
#HORSE RIDGE DO N/A         46  45  96  CALM    N/A
#PAULINA SCHOOL N/A         50  47  89  CALM    29.92R
#PINE MTN OBS   N/A         42  41  96  NW5     N/A
#PRAIRIE CITY   N/A         49  48  96  CALM    29.95S
#SENECA         N/A         43  N/A N/A CALM    N/A
#SENECA 9NW     N/A         41  40  96  CALM    29.84S
$$

ORZ049-221510-
GRANDE RONDE VALLEY

CITY            SKY/WX      TMP DP  RH  WIND    PRES   REMARKS
LA GRANDE       PTCLDY      57  45  64  CALM    29.90R
#COVE           N/A         52  51  96  CALM    29.91R
#COVE SCHOOL    N/A         51  48  89  CALM    29.89R
#ELGIN 3N       N/A         54  50  86  CALM    29.88S
#ELGIN 1E       N/A         52  48  86  CALM    N/A
#IMBLER SCHOOL  N/A         55  49  80  CALM    29.87S
#ISLAND CITY 4N N/A         53  51  93  CALM    29.96S
#LADD CYN DOT   N/A         51  46  83  SE8     N/A
#LA GRANDE ELEM N/A         56  50  80  CALM    29.93R
#UNION 1S       N/A         54  51  90  CALM    29.74S
$$

ORZ050-221510-
WALLOWA COUNTY

CITY            SKY/WX      TMP DP  RH  WIND    PRES   REMARKS
#ENTERPRISE HS  N/A         46  45  96  CALM    29.95R
#IMNAHA SCHOOL  N/A         53  49  86  SW5     29.91S
#IMNAHA 10S     N/A         45  42  89  SW2     29.92R
#JOSEPH 3N      N/A         51  45  80  CALM    29.96R
#JOSEPH 3W      N/A         50  47  89  CALM    29.79R
#LOSTINE        N/A         51  47  86  S1      29.64S
#MT HOWARD 8000 N/A         40  37  89  CALM    30.02S
#PROMISE 1S     N/A         53  49  86  CALM    29.91F
#SHEEP RDG 7000 N/A         45  40  82  CALM    29.85S
#WALLOWA SCHOOL N/A         49  47  93  CALM    30.74R



$$



USA.gov is the U.S. government's official web portal to all federal, state and local government web resources and services.